Simultaneous Nadir Overpasses (SNOs) Predictions

Prediction of SNOs between GOES-14 and NOAA-20 Satellite Orbit:

Table of predicted SNOs for the next 14.0 days since TLE Epoch: 9/17/2022
Index Date Time (GOES-14) GOES-14 Lat,Lon NOAA-20 Lat,Lon Distance(km) Time Diff (sec)
1 09/17/2022 20:10:53 -0.37,-104.51 0.40,-101.23 374.55 80
2 09/19/2022 08:32:40 0.34,-104.40 0.83,-106.49 238.99 80
3 09/20/2022 08:11:16 0.35,-104.37 -0.17,-101.96 275.07 80
4 09/21/2022 20:33:14 -0.33,-104.45 -0.94,-107.28 322.58 80
5 09/22/2022 20:17:10 -0.34,-104.45 0.07,-102.75 194.36 80
6 09/24/2022 08:38:58 0.31,-104.39 1.09,-108.03 413.99 80
7 09/25/2022 08:17:33 0.32,-104.37 0.15,-103.48 100.43 80
8 09/27/2022 20:23:25 -0.31,-104.41 -0.30,-104.27 15.53 80
9 09/30/2022 08:26:29 0.30,-104.37 0.45,-105.01 73.97 80
